Weather in Ebya

Russia / Sakha (Yakutia) Republic     63°29′17″N   123°10′45″E
temp.,
°C
wind,
m/s
gust,
m/s
humid.,
%
clouds,
%
prec.,
mm/h
press.,
hPa
HPBL,
m
23 june, wed
wed2300:00+22wnw22525 0.0 100315
03:00+20wnw11565 0.0 100311
06:00+23wnw125717 0.0 100468
09:00+28wnw344168 0.0 1004459
12:00+31n233589 0.0 10041071
15:00+32ne3330100 0.0 10031887
18:00+24ssw12156245 0.6 1004700
21:00+17n2689100 4.3 1005150
24 june, thu
thu2400:00+17wnw369265 0.1 1005136
03:00+16w119381 0.1 100411
06:00+19wnw248394 0.0 1004189
09:00+21nw2371100 0.0 1003453
12:00+26nnw235091 0.0 10021256
15:00+28nnw3540100 0.0 10012219
18:00+27nne47415 0.0 10011935
21:00+23n23625 0.0 100052
25 june, fri
fri2500:00+18ne22735 0.0 100112
03:00+17nne226629 0.0 100214
06:00+18nnw246592 0.0 1001129
09:00+23n34440 0.0 1001809
12:00+26nnw33362 0.0 10011721
15:00+27n23320 0.0 10002209
18:00+27n233628 0.0 10002225
21:00+21n2362100 0.1 100054
26 june, sat
sat2600:00+19n116735 0.4 100111
03:00+16nne22753 0.4 100212
06:00+20ene127239 0.0 1002113
09:00+24se335324 0.0 1002734
12:00+27se334147 0.0 10022343
15:00+25se574895 0.0 1002613
18:00+27se34387 0.1 10021314
21:00+22ssw246397 0.2 1003112
27 june, sun
sun2700:00+18ssw227555 0.1 100315
03:00+17s2379100 0.1 100451
06:00+19sse236939 0.0 1004151
09:00+24sse355181 0.0 1004720
12:00+27se333699 0.0 10031906
15:00+28ese22331 0.0 10032470
18:00+28ese423717 0.0 10031991
21:00+22se3458100 0.0 100464